TimeCDT,TemperatureF,Dew PointF,Humidity,Sea Level PressureIn,VisibilityMPH,Wind Direction,Wind SpeedMPH,Gust SpeedMPH,PrecipitationIn,Events,Conditions,WindDirDegrees,DateUTC
12:52 AM,50.0,46.9,89,30.13,10.0,Calm,Calm,-,N/A,,Clear,0,2013-10-10 05:52:00
1:52 AM,50.0,46.9,89,30.13,10.0,Calm,Calm,-,N/A,,Clear,0,2013-10-10 06:52:00
2:52 AM,48.9,46.0,90,30.12,10.0,Calm,Calm,-,N/A,,Clear,0,2013-10-10 07:52:00
3:52 AM,48.0,46.0,93,30.13,10.0,Calm,Calm,-,N/A,,Clear,0,2013-10-10 08:52:00
4:52 AM,48.0,46.0,93,30.13,10.0,Calm,Calm,-,N/A,,Clear,0,2013-10-10 09:52:00
5:52 AM,48.0,46.0,93,30.14,10.0,Calm,Calm,-,N/A,,Clear,0,2013-10-10 10:52:00
6:52 AM,48.9,46.9,93,30.15,10.0,Calm,Calm,-,N/A,,Scattered Clouds,0,2013-10-10 11:52:00
7:52 AM,53.1,51.1,93,30.15,9.0,Calm,Calm,-,N/A,,Mostly Cloudy,0,2013-10-10 12:52:00
8:52 AM,59.0,54.0,83,30.17,10.0,Calm,Calm,-,N/A,,Scattered Clouds,0,2013-10-10 13:52:00
9:52 AM,64.9,57.0,75,30.17,10.0,Calm,Calm,-,N/A,,Partly Cloudy,0,2013-10-10 14:52:00
10:52 AM,71.1,60.1,68,30.16,10.0,Calm,Calm,-,N/A,,Partly Cloudy,0,2013-10-10 15:52:00
11:52 AM,72.0,59.0,64,30.14,10.0,SSE,4.6,-,N/A,,Partly Cloudy,160,2013-10-10 16:52:00
12:52 PM,75.0,57.0,53,30.12,10.0,South,8.1,-,N/A,,Partly Cloudy,170,2013-10-10 17:52:00
1:52 PM,78.1,55.0,45,30.09,10.0,South,6.9,-,N/A,,Scattered Clouds,190,2013-10-10 18:52:00
2:52 PM,79.0,55.0,44,30.06,10.0,SE,8.1,-,N/A,,Clear,140,2013-10-10 19:52:00
3:52 PM,78.1,55.0,45,30.04,10.0,SSW,4.6,-,N/A,,Partly Cloudy,200,2013-10-10 20:52:00
4:52 PM,78.1,54.0,43,30.03,10.0,SE,6.9,-,N/A,,Mostly Cloudy,140,2013-10-10 21:52:00
5:52 PM,75.0,55.0,50,30.03,10.0,SSE,5.8,-,N/A,,Clear,150,2013-10-10 22:52:00
6:52 PM,69.1,55.0,61,30.03,10.0,Calm,Calm,-,N/A,,Clear,0,2013-10-10 23:52:00
7:52 PM,63.0,55.9,78,30.03,10.0,Calm,Calm,-,N/A,,Clear,0,2013-10-11 00:52:00
8:52 PM,59.0,55.9,90,30.03,10.0,ESE,3.5,-,N/A,,Clear,120,2013-10-11 01:52:00
9:52 PM,60.1,55.9,86,30.04,10.0,ESE,4.6,-,N/A,,Clear,120,2013-10-11 02:52:00
10:52 PM,59.0,55.0,87,30.03,10.0,SE,5.8,-,N/A,,Clear,130,2013-10-11 03:52:00
11:52 PM,57.9,55.0,90,30.02,10.0,SE,5.8,-,N/A,,Partly Cloudy,130,2013-10-11 04:52:00